Luverne, MN

2:46 PM CST on December 06, 2019 (GMT -0600)
Luverne

Weather History for KLYV - November, 2019

Change the Weather History Date:

Tuesday, November 12, 2019

  Actual Average (WUND) Record (WUND)
Temperature  
Mean Temperature 12 °F -  
Max Temperature 24 °F - - (-1)
Min Temperature 1 °F - - (-1)
Degree Days  
Heating Degree Days 52    
Moisture  
Dew Point 7 °F    
Average Humidity 73    
Maximum Humidity 85    
Minimum Humidity 58    
Precipitation  
Precipitation 0.00 in - - ()
Sea Level Pressure  
Sea Level Pressure 30.25 in    
Wind  
Wind Speed 9 mph (South)    
Max Wind Speed 25 mph    
Max Gust Speed 33 mph    
Visibility 10 miles    
Events      
Averages and records for this station are not official NWS values.
T = Trace of Precipitation, MM = Missing Value Source: NWS Daily Summary

Daily Weather History Graph

Daily Weather History Graph

Search for Another Location

Airport or City:

Astronomy

Nov. 12, 2019 Rise Set
Actual Time 7:14 AM CST 5:02 PM CST
Civil Twilight 6:44 AM CST 5:33 PM CST
Nautical Twilight 6:09 AM CST 6:07 PM CST
Astronomical Twilight 5:35 AM CST 6:41 PM CST
Moon 5:31 PM CST (11/12) 7:05 AM CST (11/12)
Length of Visible Light 10h 49m
Length of Day
9h 48m
Full, 100% of the Moon is Illuminated
Nov 12
Full
Nov 19
Last Quarter
Nov 26
New
Dec 4
First Quarter
Dec 11
Full

Hourly Weather History & Observations

Time (CST) Temp. Windchill Dew Point Humidity Pressure Visibility Wind Dir Wind Speed Gust Speed Precip Events Conditions
12:18 AM 3.2 °F -7.8 °F -2.2 °F 78% 30.62 in 10.0 mi West 5.8 mph - N/A   Clear
12:37 AM 3.2 °F -6.2 °F -2.2 °F 78% 30.61 in 10.0 mi West 4.6 mph - N/A   Clear
12:56 AM 3.2 °F - -2.2 °F 78% 30.60 in 10.0 mi Calm Calm - N/A   Clear
1:16 AM 3.2 °F - -2.2 °F 78% 30.59 in 10.0 mi Calm Calm - N/A   Clear
1:35 AM 1.4 °F - -4.0 °F 78% 30.59 in 10.0 mi Calm Calm - N/A   Clear
1:40 AM 1.4 °F - -4.0 °F 78% 30.59 in 10.0 mi Calm Calm - N/A   Clear
1:58 AM 1.4 °F - -4.0 °F 78% 30.58 in 10.0 mi Calm Calm - N/A   Clear
2:15 AM 1.4 °F - -4.0 °F 78% 30.58 in 10.0 mi Calm Calm - N/A   Clear
2:36 AM 1.4 °F - -4.0 °F 78% 30.58 in 10.0 mi Calm Calm - N/A   Clear
2:56 AM 1.4 °F - -4.0 °F 78% 30.58 in 10.0 mi Calm Calm - N/A   Clear
3:18 AM 1.4 °F - -2.2 °F 85% 30.57 in 10.0 mi Calm Calm - N/A   Clear
3:37 AM 1.4 °F - -4.0 °F 78% 30.57 in 10.0 mi Calm Calm - N/A   Clear
3:56 AM 1.4 °F - -4.0 °F 78% 30.55 in 10.0 mi Calm Calm - N/A   Clear
4:16 AM 1.4 °F -6.2 °F -4.0 °F 78% 30.55 in 10.0 mi South 3.5 mph - N/A   Clear
4:35 AM 1.4 °F -6.2 °F -2.2 °F 85% 30.53 in 10.0 mi South 3.5 mph - N/A   Clear
4:39 AM 1.4 °F -8.3 °F -2.2 °F 85% 30.53 in 10.0 mi SSW 4.6 mph - N/A   Clear
4:57 AM 1.4 °F -6.2 °F -4.0 °F 78% 30.53 in 10.0 mi SSW 3.5 mph - N/A   Clear
5:16 AM 1.4 °F -9.9 °F -2.2 °F 85% 30.52 in 10.0 mi SW 5.8 mph - N/A   Clear
5:36 AM 1.4 °F -8.3 °F -2.2 °F 85% 30.51 in 10.0 mi South 4.6 mph - N/A   Clear
5:56 AM 1.4 °F -8.3 °F -2.2 °F 85% 30.50 in 10.0 mi South 4.6 mph - N/A   Clear
6:19 AM 3.2 °F -7.8 °F -0.4 °F 85% 30.49 in 10.0 mi South 5.8 mph - N/A   Clear
6:36 AM 3.2 °F -10.3 °F -0.4 °F 85% 30.48 in 10.0 mi South 8.1 mph - N/A   Clear
6:56 AM 3.2 °F -7.8 °F -2.2 °F 78% 30.47 in 10.0 mi South 5.8 mph - N/A   Clear
7:16 AM 3.2 °F -9.1 °F -0.4 °F 85% 30.46 in 10.0 mi South 6.9 mph - N/A   Clear
7:35 AM 3.2 °F -9.1 °F -0.4 °F 85% 30.45 in 10.0 mi South 6.9 mph - N/A   Clear
7:57 AM 5.0 °F -8.1 °F 1.4 °F 85% 30.45 in 10.0 mi South 8.1 mph - N/A   Clear
8:16 AM 6.8 °F -7.8 °F 1.4 °F 79% 30.44 in 10.0 mi South 10.4 mph - N/A   Clear
8:35 AM 8.6 °F -4.7 °F 3.2 °F 79% 30.44 in 10.0 mi South 9.2 mph - N/A   Clear
8:55 AM 10.4 °F -4.8 °F 5.0 °F 79% 30.43 in 10.0 mi South 12.7 mph - N/A   Clear
9:18 AM 10.4 °F -7.2 °F 5.0 °F 79% 30.41 in 10.0 mi South 17.3 mph 20.7 mph N/A   Clear
9:37 AM 12.2 °F -5.3 °F 5.0 °F 73% 30.40 in 10.0 mi South 18.4 mph 23.0 mph N/A   Clear
9:56 AM 14.0 °F -3.4 °F 5.0 °F 67% 30.38 in 10.0 mi South 19.6 mph - N/A   Clear
10:16 AM 14.0 °F -2.5 °F 6.8 °F 73% 30.37 in 10.0 mi South 17.3 mph 25.3 mph N/A   Clear
10:35 AM 15.8 °F -1.1 °F 8.6 °F 73% 30.35 in 10.0 mi South 19.6 mph - N/A   Clear
10:39 AM 15.8 °F -1.9 °F 8.6 °F 73% 30.34 in 10.0 mi South 21.9 mph - N/A   Clear
10:57 AM 17.6 °F 1.3 °F 8.6 °F 68% 30.32 in 10.0 mi South 19.6 mph 25.3 mph N/A   Clear
11:16 AM 17.6 °F 0.1 °F 8.6 °F 68% 30.30 in 10.0 mi South 23.0 mph 26.5 mph N/A   Clear
11:36 AM 19.4 °F 3.2 °F 8.6 °F 63% 30.28 in 10.0 mi South 20.7 mph 29.9 mph N/A   Clear
11:56 AM 19.4 °F 2.5 °F 8.6 °F 63% 30.26 in 10.0 mi South 23.0 mph 29.9 mph N/A   Clear
12:18 PM 19.4 °F 3.2 °F 10.4 °F 68% 30.23 in 10.0 mi South 20.7 mph 32.2 mph N/A   Clear
12:37 PM 21.2 °F 4.2 °F 8.6 °F 58% 30.21 in 10.0 mi South 25.3 mph 33.4 mph N/A   Clear
12:56 PM 21.2 °F 4.9 °F 10.4 °F 63% 30.19 in 10.0 mi South 23.0 mph 31.1 mph N/A   Clear
1:16 PM 21.2 °F 5.2 °F 10.4 °F 63% 30.18 in 10.0 mi South 21.9 mph 31.1 mph N/A   Clear
1:35 PM 21.2 °F 5.6 °F 10.4 °F 63% 30.17 in 10.0 mi South 20.7 mph 31.1 mph N/A   Clear
1:39 PM 21.2 °F 5.6 °F 10.4 °F 63% 30.17 in 10.0 mi South 20.7 mph 31.1 mph N/A   Clear
1:57 PM 21.2 °F 6.0 °F 10.4 °F 63% 30.16 in 10.0 mi South 19.6 mph 26.5 mph N/A   Clear
2:15 PM 21.2 °F 4.9 °F 10.4 °F 63% 30.13 in 10.0 mi South 23.0 mph 32.2 mph N/A   Clear
2:36 PM 23.0 °F 7.6 °F 10.4 °F 59% 30.11 in 10.0 mi South 21.9 mph 31.1 mph N/A   Clear
2:55 PM 23.0 °F 8.0 °F 10.4 °F 59% 30.10 in 10.0 mi South 20.7 mph 32.2 mph N/A   Clear
3:18 PM 23.0 °F 8.0 °F 10.4 °F 59% 30.10 in 10.0 mi South 20.7 mph 28.8 mph N/A   Clear
3:37 PM 21.2 °F 6.0 °F 12.2 °F 68% 30.10 in 10.0 mi South 19.6 mph 27.6 mph N/A   Clear
3:56 PM 23.0 °F 7.2 °F 12.2 °F 63% 30.09 in 10.0 mi South 23.0 mph 27.6 mph N/A   Clear
4:16 PM 23.0 °F 8.3 °F 12.2 °F 63% 30.08 in 10.0 mi South 19.6 mph 26.5 mph N/A   Clear
4:35 PM 23.0 °F 7.6 °F 12.2 °F 63% 30.06 in 10.0 mi South 21.9 mph 32.2 mph N/A   Clear
4:40 PM 23.0 °F 6.6 °F 12.2 °F 63% 30.06 in 10.0 mi South 25.3 mph 32.2 mph N/A   Clear
4:57 PM 21.2 °F 5.6 °F 12.2 °F 68% 30.05 in 10.0 mi South 20.7 mph 27.6 mph N/A   Clear
5:15 PM 21.2 °F 6.0 °F 12.2 °F 68% 30.04 in 10.0 mi South 19.6 mph 25.3 mph N/A   Clear
5:36 PM 21.2 °F 5.6 °F 12.2 °F 68% 30.03 in 10.0 mi South 20.7 mph 25.3 mph N/A   Clear
5:56 PM 21.2 °F 6.8 °F 12.2 °F 68% 30.02 in 10.0 mi South 17.3 mph 25.3 mph N/A   Clear
6:19 PM 21.2 °F 7.8 °F 12.2 °F 68% 30.01 in 10.0 mi South 15.0 mph - N/A   Clear
6:36 PM 21.2 °F 7.3 °F 14.0 °F 74% 30.01 in 10.0 mi South 16.1 mph 23.0 mph N/A   Clear
6:56 PM 21.2 °F 8.9 °F 14.0 °F 74% 30.01 in 10.0 mi South 12.7 mph - N/A   Clear
7:15 PM 21.2 °F 7.8 °F 14.0 °F 74% 30.00 in 10.0 mi South 15.0 mph 21.9 mph N/A   Clear
7:35 PM 21.2 °F 7.3 °F 14.0 °F 74% 29.98 in 10.0 mi South 16.1 mph 21.9 mph N/A   Clear
7:39 PM 21.2 °F 6.8 °F 14.0 °F 74% 29.98 in 10.0 mi South 17.3 mph 21.9 mph N/A   Clear
7:57 PM 21.2 °F 7.3 °F 14.0 °F 74% 29.97 in 10.0 mi South 16.1 mph - N/A   Clear
8:16 PM 21.2 °F 7.8 °F 14.0 °F 74% 29.95 in 10.0 mi South 15.0 mph - N/A   Clear
8:36 PM 21.2 °F 8.9 °F 14.0 °F 74% 29.95 in 10.0 mi South 12.7 mph - N/A   Clear
8:56 PM 21.2 °F 8.9 °F 14.0 °F 74% 29.93 in 10.0 mi South 12.7 mph - N/A   Clear
9:18 PM 21.2 °F 8.3 °F 14.0 °F 74% 29.92 in 10.0 mi South 13.8 mph 19.6 mph N/A   Clear
9:36 PM 21.2 °F 7.8 °F 14.0 °F 74% 29.91 in 10.0 mi South 15.0 mph 20.7 mph N/A   Clear
9:56 PM 21.2 °F 9.5 °F 14.0 °F 74% 29.90 in 10.0 mi South 11.5 mph - N/A   Clear
10:16 PM 21.2 °F 9.5 °F 14.0 °F 74% 29.90 in 10.0 mi South 11.5 mph - N/A   Clear
10:35 PM 21.2 °F 10.1 °F 14.0 °F 74% 29.89 in 10.0 mi South 10.4 mph - N/A   Scattered Clouds
10:39 PM 21.2 °F 10.1 °F 14.0 °F 74% 29.89 in 10.0 mi South 10.4 mph - N/A   Mostly Cloudy
10:58 PM 23.0 °F 12.4 °F 14.0 °F 68% 29.88 in 10.0 mi SSW 10.4 mph - N/A   Overcast
11:16 PM 24.8 °F 13.4 °F 14.0 °F 64% 29.88 in 10.0 mi SSW 12.7 mph 17.3 mph N/A   Overcast
11:36 PM 24.8 °F 12.4 °F 14.0 °F 64% 29.87 in 10.0 mi SSW 15.0 mph - N/A   Overcast
11:56 PM 24.8 °F 12.9 °F 14.0 °F 64% 29.86 in 10.0 mi SSW 13.8 mph 19.6 mph N/A   Overcast